Orbital Elements at Epoch 2459000.5 (2020-May-31.0) TDB
Reference: JPL 4 (heliocentric ecliptic J2000)
Element | Value | Uncertainty (1-sigma) | Units |
e | .926044592026435 | 4.5813e-05 | |
a | 32.31406683440672 | 0.020366 | au |
q | 2.389799996023596 | 2.589e-05 | au |
i | 81.32982982945289 | 0.00061696 | deg |
node | 155.1106307915579 | 9.4473e-05 | deg |
peri | 32.5063384376281 | 0.0012552 | deg |
M | 4.094159047835359 | 0.0038524 | deg |
tp | 2458237.458666028432 (2018-Apr-28.95866603) | 0.00343 | TDB |
period | 67094.33537395175 183.69 | 63.43 0.1737 | d yr |
n | .005365579642357766 | 5.0725e-06 | deg/d |
Q | 62.23833367278984 | 0.039226 | au |
|
| | Orbit Determination Parameters
Additional Information
|